TIMESTAMP,CO2_1_1_1,H2O_1_1_1,TAU_1_1_1,TAU_SSITC_TEST_1_1_1,H_1_1_1,H_SSITC_TEST_1_1_1,LE_1_1_1,LE_SSITC_TEST_1_1_1,FC_1_1_1,FC_SSITC_TEST_1_1_1,WD_0_0_1,WS_0_0_1,WS_MAX_0_0_1,U_SIGMA_0_0_1,V_SIGMA_0_0_1,W_SIGMA_0_0_1,USTAR_0_0_1,MO_LENGTH_0_0_1,ZL_0_0_1,FETCH_MAX_0_0_1,FETCH_70_0_0_1,FETCH_80_0_0_1,FETCH_90_0_0_1,PA_0_0_1,RH_0_0_1,TA_0_0_1,VPD_0_0_1,T_SONIC_0_0_1,T_SONIC_SIGMA_0_0_1
[yyyymmddHHMMSS],[mmolCO2 mol-1],[mmolH2O mol-1],[kg m-1 s-2],[#],[W m-2],[#],[W m-2],[#],[umolCO2 m-2 s-1],[#],[Decimal degrees],[m s-1],[m s-1],[m s-1],[m s-1],[m s-1],[m s-1],[m],[#],[m],[m],[m],[m],[kPa],[%],[deg C],[hPa],[deg C],[deg C]
20220523003000,417.69453159096264,4.8734872684408952,0.27412693692238088,0,25.867054438038085,0,21.640871982705555,0,-0.79984970001176225,0,335.95571787421665,2.5310062196729115,6.4796497780084295,1.1559474355393822,1.0235792949414759,0.56501355481616056,0.48358734326048647,-366.65788223280117,-5.1819423284445790E-002,110.55738223169631,202.13415518810325,241.90295797657200,302.83379813742636,94.774598643066980,43.176551724137930,8.0055172413793230,6.0803404833912724,7.3681306764492547,0.13814680482186659
20220523010000,417.98927349655827,4.9663570303397933,0.12962144301053316,0,-1.1402815292069108,0,13.048088312075807,0,-0.44538526036678516,0,326.84481259010209,1.7660173382304432,5.1062063536537261,0.72165277294497931,0.66080918000508770,0.35273799970901515,0.33235125416105982,2700.2405526355165,7.0364101381469235E-003,119.39082662873444,218.28450882848171,261.23080642622966,327.02997087046617,94.785339348958345,44.878999999999998,7.7166666666666401,5.7832171919829403,7.2241299048530436,0.11093128525581836
20220523013000,418.35764760002490,5.0123876347265179,9.4462408657292937E-003,1,-4.3110046384924203,0,3.2750246951733311,0,-9.5303522113168421E-002,1,328.83795296340190,0.85080998324093005,3.0214918151214301,0.44478282601179481,0.23758500561238355,0.15342465573124858,8.9655363958308545E-002,14.021931358519250,1.3550201833256190,128.65348272840035,1061.0000000000000,1884.0000000000000,4801.0000000000000,94.795923188802092,46.481999999999999,7.3396666666666874,5.4722490995373692,7.0069472461277087,7.4737647076595304E-002
20220523020000,418.45785102190740,5.0637460665540459,2.7589574532652945E-003,1,0.29524033780914610,2,-0.28581983966945440,2,1.7391460119254847E-003,2,324.96859577960021,0.41945979736382971,0.72209299095070345,0.11956726081701263,0.11486450127149642,3.9795517573628758E-002,4.8426585332153535E-002,-32.274657176833742,-0.58869719036513612,94.796761221414371,306.00000000000000,424.00000000000000,704.00000000000000,94.834511537760420,47.609999999999999,7.1443333333333499,5.2857306270523239,6.9532210430569421,5.6651662735430076E-002
20220523023000,418.41345054135775,5.1632493051617603,5.0127845913400984E-002,1,1.2049870119499333,2,0.74586173465644223,1,-0.18864070657357168,2,274.60889560372743,0.39525177311956955,0.99863807925069659,0.26287023161618905,0.48515107165329063,8.0315997142100387E-002,0.20637125570171777,-612.18850618134752,-3.1036191970536055E-002,266.39901867505705,487.06236974724897,582.88925912246236,729.70818426561527,94.873469701102067,48.654333333333334,7.1176666666666506,5.1709058367914258,6.8805050209448950,4.0452751536706064E-002
20220523030000,418.43778163706020,5.0362370446100089,7.4694105583684271E-003,1,-4.7608692595599500,1,2.4067233010082916,1,0.28417538770040301,1,183.48733469987417,0.65587543318766961,1.0756270399952041,0.11693567417993184,0.19310901335793018,7.1206365888340659E-002,7.9626083995348110E-002,8.9019210278283296,2.1343707656587863,84.423269607959824,622.00000000000000,1072.0000000000000,2585.0000000000000,94.902260093750002,47.983666666666664,6.9613333333333571,5.1825738754349251,6.7101652848985509,0.20637411371693004
20220523033000,419.47250725119875,5.3456113405695076,4.9193469859664336E-002,1,10.628648438362855,1,-15.307702408171108,1,-0.69690792050198136,1,189.97552008514955,0.70674056840691368,1.4954368497008783,0.27622263370397204,0.38165001876478233,0.11397568115466342,0.20400125480294048,-67.060515336965210,-0.28332618537941340,199.48553679965082,364.72318391853457,436.48049954953632,546.42179077574110,94.910795616102433,54.387666666666668,6.0096666666666465,4.2560952153722678,5.9583632447984201,0.26375300365190074
20220523040000,419.07364847739802,5.3645192685978511,3.4739343109452141E-002,1,16.646263872401409,1,-7.6654187561201068,1,-0.68471490417876824,1,193.32077529711864,0.89204336304705889,1.4112132270014941,0.15120878801931090,0.38404750830843548,7.9152883284640499E-002,0.17158066208950315,-25.475424099099545,-0.74581682825337436,41.914049785708308,140.00000000000000,195.00000000000000,328.00000000000000,94.905279555555552,52.839333333333336,6.4783333333333530,4.5452760837672530,6.3539962819418179,0.21193884508204960
20220523043000,419.20902880973244,5.3727108720867296,1.3778436065399094E-002,0,7.8457172952752030,2,-6.9134256302997965,1,-0.81243584876130059,2,220.15505036319786,1.6955538851384275,2.7981153319625616,0.36682419770804903,0.26039385207963184,0.20380858131850402,0.10802728413183951,-13.489946025065331,-1.4084563396100012,152.40303266912034,452.00000000000000,613.00000000000000,983.00000000000000,94.908298532986109,53.478000000000002,6.3266666666666538,4.4370810005077956,6.0740456390379904,0.67336213672886358
20220523050000,421.50775108296159,5.6370756255211845,1.8006000706258241E-002,0,-9.0434425242619287,2,16.599042307169508,2,2.6004392475294766,2,207.59579016429728,1.9805896657119639,3.6554689447404631,0.50637042821241929,0.38081826687844400,0.20075067082908032,0.12312303085747699,17.330237573373431,1.0963496558865431,355.06067750181421,3490.0000000000000,6515.0000000000000,-9999.,94.930027633029525,62.875000000000000,4.6906666666666865,3.1605481573386682,4.5430717290242910,0.48322237638599358
20220523053000,422.29640857742453,5.8164052759783651,5.9884465682757848E-002,0,-8.5824330459396432,0,10.369818661548246,0,0.11623449512593755,2,213.55409685628749,2.2348011593119237,3.5312719841167457,0.45827084523080813,0.47751560599530185,0.33984083836305201,0.22440569739149749,110.58016813435178,0.17182104459197003,89.838305085414660,164.25307415396776,196.56897894180605,246.08103591154972,94.946848967664934,66.237333333333339,4.3963333333333594,2.8156949150807864,4.3447229512532886,0.62697165512112918
20220523060000,422.50196206249592,5.8819271551800787,7.0605013876796643E-002,0,-37.543975336011641,0,7.4907299723908167,1,1.5814670646871345,0,220.64445114649317,2.7466716282592714,4.5590942514088022,0.55788363293779508,0.50741643313767082,0.33788882440344903,0.24359109788727898,32.334496443888284,0.58760772826543561,96.375127988258242,176.20447123310120,210.87174881612316,263.98640656577913,94.956782200520834,67.689333333333337,4.2483333333333348,2.6667837024141887,4.1649227210151025,0.44136333004151618
20220523063000,421.76129252585082,5.8779188774827116,0.10507593986344171,0,-52.248660623160369,0,5.3080248105564491,0,1.9123551646625894,0,230.34590511360412,2.8066858572927265,5.0371278629834917,0.60301729151509209,0.49849256013966092,0.35606476721614161,0.29723681724120748,42.212558847418698,0.45010301480839632,108.37117444271118,198.13707009462615,237.11946798945735,296.84543630313010,94.952601623697916,67.048333333333332,4.3736666666666792,2.7436981773737616,4.2682237294515062,0.40118551328518437
20220523070000,422.58162205750875,5.8875882512659707,6.1049542778756453E-002,0,-19.102772627662265,1,-1.4332009342828278,2,-7.1153009212539378E-002,2,232.11176857334016,2.7235821994057265,4.5968990633412377,0.47884539780463525,0.39625906565191577,0.27441810449015347,0.22647929186620752,51.073722520960992,0.37201126258620126,107.38595665472255,196.33577775908569,234.96378112029726,294.14677214605126,94.952640963126427,68.155333333333331,4.1636666666666997,2.6127497739784404,4.0409410701446404,0.37675351470636442
20220523073000,424.65628911314394,5.9580036889122141,8.6284589327013675E-002,1,-23.539333084506985,1,2.8258645692291253,1,0.27786621778468940,2,218.91820353182015,2.5435159104245497,4.1484840614700742,0.50034901920652020,0.41919863581063310,0.32368915945804538,0.26893136630351155,69.403083004579884,0.27376305457131056,107.96066290158792,197.38652407151199,236.22125609191875,295.72098159311292,94.964670741627543,72.086666666666673,3.5376666666666665,2.1914727348415957,3.4148531192593055,0.48818923559113719
20220523080000,425.15362074830296,6.0158493569522067,6.3405548303037962E-002,0,-22.907545577065491,1,-2.6651658742521636,2,0.16841845014474166,2,222.83614275568780,2.7184794360010511,4.4987265818162863,0.54423851521045996,0.44723994546525403,0.30994469423155285,0.23042975202632446,44.866782578684017,0.42347587475610082,98.777578811676946,180.59691756070134,216.12838522381497,270.56709157304124,94.975897144097232,73.977000000000004,3.3096666666666579,2.0104231791663358,3.2517296854655910,0.41420196704095674
20220523083000,426.21556084451760,6.0325056586735242,6.1518706355062527E-002,0,-21.698442872224359,0,-2.2891913400658765,1,9.4619513398778356E-003,2,230.43493950059903,2.6182945176792760,4.3443916901171411,0.50249552681137488,0.39554102733217444,0.29695360004577404,0.22690985802897135,45.233889728603323,0.42003904846559076,100.96868853263716,184.60296494921991,220.92260078909217,276.56888055845366,94.989430686848948,74.833666666666659,3.1879999999999882,1.9275800442814011,3.0429578060574158,0.31072431662745198
20220523090000,427.00802148178599,6.2667246733951956,6.4548274061829336E-002,0,-21.551094847333520,0,-1.0237625384193461,1,0.59474820820578589,1,235.61372950913739,2.5819933190539661,4.3596917807495350,0.50698580593699683,0.41957950788996262,0.29357181959984652,0.23240226735123523,48.937534636388015,0.38825004449391187,103.86654766495110,189.90117566785676,227.26320583740153,284.50656567537078,95.002155094184033,78.043666666666667,3.1346666666666465,1.6753775868655145,3.0821508475409587,0.33287594912955898
20220523093000,426.68855466137978,6.3051500014914019,7.5227425164797593E-002,0,-30.844928205091446,0,-4.0141074931456551,1,0.18249343030620432,2,235.89919648644394,2.6201027627788913,4.9860134049618274,0.55884640289184817,0.42400512991968681,0.29954109495421388,0.25097047041657389,43.062771232949736,0.44121637916005824,108.68956964701232,198.71919807503076,237.81612650444092,297.71757009538283,95.009367088324652,77.475999999999999,3.3253333333333330,1.7420341141301914,3.2578045010037044,0.32760343455400193
20220523100000,428.51256555853956,6.3652274063545082,6.3696608921352815E-002,0,-26.399029394130814,0,-1.7636676546273951,1,0.92272255435328299,0,225.54745358336262,2.5742168936212062,4.1566878663561821,0.49350091879510699,0.37716679985210178,0.28340994166881245,0.23074372692202050,39.110771543001107,0.48579967232582144,106.22500437334467,194.21318672198768,232.42358176620613,290.96674398575010,95.032359992404508,80.486333333333334,2.9243333333333226,1.4669613002061885,2.8490251668295059,0.36055948958649953
20220523103000,427.96632022042945,6.3382004506722911,5.0507739625358268E-002,0,-21.546856893068096,0,-0.76181198358221347,1,0.41300410778854385,0,225.80148746577373,2.4784386986938562,4.2981424536941697,0.50388447777777123,0.44802039930757676,0.29235943029953931,0.20538192037702158,33.795140764793068,0.56221100341720498,94.399780074545191,172.59290524192943,206.54962673151539,258.57562259751455,95.050755459635425,81.209999999999994,2.7409999999999854,1.3942969964937402,2.6753268814086937,0.30570059697866336
20220523110000,428.23751676624960,6.3931163348122553,3.7647351824940785E-002,0,-15.565133768458521,0,-0.65827866662541756,0,0.15242071487660730,0,229.48496425643873,2.6966904288791982,4.3368378803979901,0.44179530018045843,0.39131252518621767,0.27296151684931930,0.17736141773244285,30.131946809083725,0.63055998739092978,294.86159187340718,3008.0000000000000,5677.0000000000000,-9999.,95.064856602864594,80.924000000000007,2.9143333333333317,1.4330424532776964,2.7652764756944634,0.29108289792451658
20220523113000,427.87246770216416,6.4110071690037609,6.7664381401896220E-002,0,-19.296373470079292,0,2.9843708539468969,0,0.46160471291119637,0,228.74723172191128,2.3904170068113579,3.9334661914289106,0.51485536701642409,0.43830041250458218,0.32118740428365350,0.23799905727721871,58.733594876300920,0.32349458670146075,98.516343597968969,180.11929627334507,215.55679452902839,269.85152785058779,95.073820739583326,78.129666666666665,3.4516666666666538,1.7066447141593710,3.2013558315701403,0.24389534807461608
20220523120000,427.00167830457514,6.4925834147967372,9.9796247049342521E-002,0,11.188645287716001,2,7.4203960356995822,0,-0.76192536457763127,2,231.71014785925581,2.0674071808557386,4.0551356499420299,0.65649954967926427,0.52909837373167490,0.39329835823655290,0.28943961306995725,-182.20375600595307,-0.10427886019747705,97.976871559829789,179.13296933184475,214.37641309146838,268.37383035991951,95.077926907956879,74.920666666666662,4.2276666666666642,2.0669409788603672,3.9199102231421534,0.30225086528688877
20220523123000,424.02593030683505,6.5592429553690188,0.19872312924653088,0,39.591164011318568,1,15.742292357835401,1,-0.93762011294609315,2,245.11464267836374,2.3596253128255995,6.3928746606322395,0.86851226875657206,0.70507973939347490,0.54367676231590056,0.40959412114430005,-145.91440559666700,-0.13021332556100959,99.830961695653940,182.52283743185089,218.43321942278240,273.45247048857294,95.065372871744799,68.020666666666671,5.7576666666666938,2.9323855753627197,5.4470466486612281,0.48323398882307667
20220523130000,422.92536734084962,6.4827008424242534,0.32076963205168646,0,68.514296349078094,0,32.762364849240036,0,-0.58834580746872966,1,248.26213803343066,2.2291817996978014,6.5143794093122906,1.0567839108203978,0.74348788788397480,0.60470298532989575,0.52149261309855510,-174.00486654492573,-0.10919234833638664,111.22943688000635,203.36288542605058,243.37343424931331,304.67465993783622,95.053069132812496,62.054666666666670,6.9163333333333412,3.7689686869904291,6.5587461132473663,0.35076871454289510
20220523133000,422.18871778962711,6.6284964714331203,0.24524019074118128,1,96.168413261373829,1,30.567707795711726,0,-1.4415975719125285,1,250.89029494104835,2.0045587976630048,5.5353556901034056,0.97072415327976858,0.78570426037299645,0.56547308875961755,0.45684225613089502,-83.331616322266427,-0.22800469783907396,105.56947475991242,193.01466951818651,230.98926277882117,289.17114681602681,95.030872031250013,59.335333333333331,7.8933333333333167,4.3181731572327333,7.4951749928792424,0.41458734396442865
20220523140000,420.40679684747130,6.4519048526572229,0.39101699098886783,1,189.51656521558687,1,44.070187428396352,0,-3.7807303066078473,1,255.85052447370555,1.8267002669030130,5.1172877201670905,0.94319299135481438,0.97667304628952889,0.67126197154133926,0.57775597962800995,-85.526213839916608,-0.22215411096723145,111.05466942648664,203.04335478179613,242.99103767740598,304.19594480663619,95.023323182291676,54.427000000000000,8.7663333333333640,5.1348512800108113,8.3839087744818812,0.45560728183101529
20220523143000,419.15336106045226,6.1776076282309971,0.37032947666024102,0,151.22084312006311,0,150.49824172655559,1,1.6738334202900853,2,275.58605853043218,1.9634712816957542,5.5778005004815840,1.0282164284133439,0.93348798465038429,0.69358842328914183,0.56304956463165690,-99.196755224897927,-0.19153852317974901,105.97678319097162,193.75935923452400,231.88046617286975,290.28682771133373,95.013894880642354,49.408000000000001,9.5553333333333512,6.0118549703373434,9.1263852454292191,0.43302844653874339
20220523150000,417.54470854460999,4.7177571985625262,0.32390620099004758,1,230.14912962944160,0,161.33163918105907,1,-1.9082599873957447,1,288.39621993861857,1.8455239374395098,6.3615173380866663,1.1439505050872569,0.95267781667530405,0.74867936252303313,0.52732539202583950,-53.520636464454029,-0.35500325211227513,94.597826408051702,172.95499710321775,206.98295820992573,259.11810218750043,94.989425755859386,35.545000000000002,10.442999999999984,8.1284066343296413,9.6274300443861307,0.54988206088272129
20220523153000,417.90964644688859,4.9817870352867111,0.28031961196576621,1,148.47090258595429,0,57.344342062285314,0,-3.6172755377706505,0,250.28569113712649,0.69860779282654939,4.1252270889747411,0.77560179057405110,0.66135446184988500,0.58342502880002989,0.49045712047017259,-66.755503225002130,-0.28462072910992414,108.98022242924333,199.25060405989942,238.45208374534639,298.51371309556492,94.993581878472227,37.887666666666668,10.303333333333342,7.7602530946631241,9.7027666575114040,0.31575329547610204
20220523160000,417.49665586158847,5.0713612212592247,0.34724680574892131,0,107.73244404303081,0,-13.342333844192760,2,-4.2916018684703667,0,290.46587681202038,1.3591300098107584,4.5634247017750393,1.0232053412335893,1.2820320535489800,0.58869021241912145,0.54605866554305293,-126.95406149571205,-0.14966043446071031,117.90626722452569,215.57026076165056,257.98254471886196,322.96353266559811,94.975992571614583,38.232666666666667,10.431666666666672,7.7835752296533451,9.8173849453396542,0.36744090121375206
20220523163000,417.07365125267256,4.7760470462039804,0.28909352764855495,1,212.46425613056800,0,118.63493244470328,0,-4.4139363291349651,0,311.60231608340382,1.1112787829823747,4.4267866490928585,0.83298697743158445,0.99147564339846805,0.64992155595850765,0.49853431401056292,-48.974732912657359,-0.38795515299460698,101.27964991866519,185.17150153892649,221.60299388069981,277.42065197076505,94.950163105902774,35.310333333333332,10.720333333333315,8.3102461243359791,10.101121622721394,0.42273486353749889
20220523170000,416.48128974673727,4.7299712937524365,0.25431656665260266,1,440.25895214692844,0,121.82287837732694,0,-5.8220752649121552,1,297.76282132660594,0.65585316167688790,4.3878282387462564,0.93218288500087676,1.0629466938332977,0.72773121224952597,0.46837328382746130,-19.592560665975228,-0.96975583354940031,88.014006280503907,160.91767410832901,192.57735696023462,241.08399885371767,94.903115856987867,33.104333333333336,11.538666666666643,9.0733694639512326,10.708445852491650,0.77391127941076721
20220523173000,417.26686509112767,4.6731148935896973,9.1952241395390641E-002,0,225.18602367743460,0,77.802913274557895,0,-4.2609888638954532,0,307.58838531081301,0.84061796085842089,5.4721490201614396,0.96031801623057733,1.0790575292657008,0.61128990336974554,0.28166144103936075,-8.3279968913769498,-2.2814609860953663,67.365732931075399,123.16604499655386,147.39829881405171,184.52517919676555,94.866739410373270,32.799333333333330,11.490000000000009,9.0854298000102141,10.712826485527899,0.45101070878826538
20220523180000,416.25310170297064,4.9107660433305789,0.17934027031428712,1,312.52790367035084,0,76.205560275285066,0,-5.7953023357457107,1,319.79979583325724,0.88757380726458956,4.6046971911967525,1.0098632427562575,0.94694617851925578,0.61611900774183481,0.39377802790901217,-16.396289626384949,-1.1587987546539282,87.523443817309811,160.02076946873720,191.50399117928453,239.74027226618520,94.854126906249988,33.237000000000002,12.038333333333355,9.3591407960568951,11.278795810275710,0.72573598537344064
20220523183000,416.76197022586672,4.8977253453925575,0.35340892824898068,1,334.58715771287530,1,75.009498323565168,1,-10.372253757337283,1,38.173356496520142,0.47405786011270656,3.7709304687341483,0.94386951644745376,0.65877053555038667,0.61304365330430632,0.55305574404995661,-42.422282021709279,-0.44787783906289846,115.31263734626731,210.82827814837123,252.30760265002519,315.85917860853800,94.828328889322904,32.685333333333332,12.247999999999990,9.5676611278155121,11.511990536159942,0.62477503386005473
20220523190000,416.93319400109868,4.6822579282171723,1.0189701603787538,1,201.41572776593185,1,-48.289780152026090,2,-1.3675918093482089,0,283.93377039330818,0.22115935805264897,4.5546221197681236,1.2438183567480556,0.61795591101973557,0.85558695335563650,0.93917788750836928,-345.04026460453053,-5.5066037066070932E-002,134.90929227946759,246.65721339878971,295.18568730702833,369.53745250048411,94.809315987413200,31.210999999999999,12.262666666666689,9.7866518423230993,11.508962309943399,0.34682467180998133
20220523193000,416.22744326465755,4.8931163929640569,0.14855666655101060,1,224.00837021998009,0,73.334885976663671,0,-5.3783140975949930,1,103.41678898886943,0.98151133882082486,5.3342512711417420,0.61059912416245710,0.70620036372438455,0.55388643063145337,0.35890689752649846,-17.310039738066521,-1.0976289071259082,88.491949541214311,161.79150682109241,193.62311153742348,242.39315949060565,94.772482578693683,31.860666666666667,12.613666666666688,9.9203570675373687,11.937900969639941,0.67953435078800506
20220523200000,416.52514900301765,4.7394809179482245,0.24911717170139078,1,296.69195124764036,0,93.730394908536056,0,-4.5009688667660708,0,107.75740946315676,1.2900653336247405,3.8953863305614220,1.0044506647025935,0.78964744543995469,0.66208812799988526,0.46541162651280077,-28.487080654087617,-0.66696901064425795,94.447842569481196,172.68077881141900,206.65478895097161,258.70727321727077,94.720476687500010,29.559666666666669,13.263333333333321,10.700720077478579,12.351286027696460,0.61780502338345999
20220523203000,415.92200976486703,4.9030321387528248,0.45401806808054362,0,276.05411492902567,0,83.648204233916516,0,-4.5291518183233084,1,263.38704400464087,1.3809109641959734,6.7930173275513202,1.7687005760275092,0.99820311753376745,0.82508743330825585,0.62899605108478562,-75.565504589743085,-0.25143747935190752,100.77974540811775,184.25751665727958,220.50918741236444,276.05133606820647,94.694731342230895,29.529000000000000,13.795999999999992,11.083290843720839,12.889819756401948,0.67139145163853486
20220523210000,415.96785575112165,4.9375004726521610,0.72730834270406397,1,447.99158317344421,0,107.76062723706903,0,-5.6244260797475247,1,255.27815505712525,2.5002262769234251,6.9950231393627176,1.4565141235205190,1.3494608606212981,0.92429043200862104,0.79692585453216991,-94.677084894937011,-0.20068213994003159,111.20964831445703,203.32670561698714,243.33013625831657,304.62045599103482,94.658095770182300,28.820000000000000,14.272666666666680,11.546368138969989,13.291152986314557,0.76451007691313033
20220523213000,416.39221362968931,4.7859444058781468,0.46123380404924241,1,267.43001327284480,0,66.192450936664926,0,-3.0835900344161185,0,278.58955450572017,3.3196742050357342,7.4874919175865431,1.1541130481230382,0.82530290331389500,0.73854569226746702,0.63414910835462213,-79.900048965338129,-0.23779710082834232,110.84244913658968,202.65534840767452,242.52669314579313,303.61464055418355,94.638888157986102,28.804333333333332,13.797333333333313,11.198232784176199,12.801035758972148,0.58194319811326189
20220523220000,416.14699348070394,4.9660097372890526,0.40357680525317652,1,296.53389927468783,0,102.18856012427646,0,-4.1444766368838257,0,263.86937077764128,2.1414519862648711,6.3277247444719427,1.1328709378326112,1.0152950588716236,0.79210023707430666,0.59347635211955618,-59.058181155812399,-0.32171664667207678,99.392478392965828,181.72115010746035,217.47380444928658,272.25139679007850,94.622616259114579,29.481999999999999,14.005333333333340,11.242477901915867,13.178711550394723,0.52266998094847894
20220523223000,416.19419140302745,4.9774815039483986,0.26776080691559184,1,110.03771677735990,0,76.691155252108871,0,0.27908389556198859,2,268.93314807056936,2.3558225831895254,5.8069971559831313,0.88210297352951916,0.85966794370843413,0.62525053876409109,0.48323184772372657,-85.909521954283946,-0.22116291148856229,101.89105976252429,186.28935373266916,222.94077745317580,279.09539825633129,94.614528246093741,30.001999999999999,13.770333333333326,10.990549007846949,13.030514691670760,0.32056536061011742